Location: Cheching
(60.0667°N, 164.2167°W)
Time: 08:20:00
(UTC+00:00)

XW-2D - Pass Details

Date: 17 January 2021
Orbit: 505 x 525 km, 97.5° (Epoch: 09 March)

Event Time Altitude Azimuth Distance (km) Brightness Sun altitude
Rises 18:09:56 0° 12° (NNE) 2,665 ? -10.3°
Reaches altitude 10° 18:12:08 10° 4° (N) 1,775 ? -10.0°
Maximum altitude 18:15:39 36° 298° (WNW) 849 ? -9.6°
Drops below altitude 10° 18:19:11 10° 231° (SW) 1,771 ? -9.2°
Sets 18:21:23 0° 222° (SW) 2,658 ? -9.0°
